{"data":{"norad_id":65343,"epoch":"2026-05-24T22:09:55.899360Z","epoch_age_seconds":74977,"freshness":"FRESH","line1":"1 65343U 25189W   26144.92356365  .00016995  00000+0  58449-3 0  9994","line2":"2 65343  53.1582 212.9839 0001094  72.4211 287.6909 15.30207565 42788","mean_motion":15.30207565,"eccentricity":0.0001094,"inclination_deg":53.1582,"raan_deg":212.9839,"arg_perigee_deg":72.4211,"mean_anomaly_deg":287.6909,"bstar":0.00058449,"rev_number":4278,"period_min":94.104880470905,"perigee_km":474.44272754067,"apogee_km":475.94223603129,"semimajor_km":6853.329481786,"source":"CELESTRAK","updated_at":"2026-05-25T13:38:20.762582Z"}}